Atlantic City, NJ

1:46 PM EDT on April 19, 2018 (GMT -0400)
Atlantic City International

Weather History for KACY - October, 2013

Change the Weather History Date:

Saturday, October 19, 2013

  Actual Average Record
Temperature  
Mean Temperature 53 °F 55 °F  
Max Temperature 64 °F 66 °F 86 °F (2016)
Min Temperature 41 °F 44 °F 25 °F (1976)
Degree Days  
Heating Degree Days 12 10  
Month to date heating degree days 72 149  
Since 1 July heating degree days 174 211  
Cooling Degree Days 0 0  
Month to date cooling degree days 36 16  
Year to date cooling degree days 1088 1050  
Growing Degree Days 2 (Base 50)    
Moisture  
Dew Point 48 °F    
Average Humidity 76    
Maximum Humidity 100    
Minimum Humidity 52    
Precipitation  
Precipitation 0.03 in 0.10 in 2.03 in (1966)
Month to date precipitation 4.25 2.08  
Year to date precipitation 36.85 33.45  
Snow  
Snow 0.00 in 0.00 in T in (1972)
Month to date snowfall 0.0 0.0  
Since 1 July snowfall 0.0 0.0  
Since 1 September snowfall 0.0 0.0  
Snow Depth 0.00 in    
Sea Level Pressure  
Sea Level Pressure 29.92 in    
Wind  
Wind Speed 4 mph (South)    
Max Wind Speed 14 mph    
Max Gust Speed 21 mph    
Visibility 10 miles    
Events Rain    
T = Trace of Precipitation, MM = Missing Value Source: NWS Daily Summary

Daily Weather History Graph

Daily Weather History Graph

Search for Another Location

Airport or City:

Astronomy

Oct. 19, 2013 Rise Set
Actual Time 7:12 AM EDT 6:13 PM EDT
Civil Twilight 6:45 AM EDT 6:40 PM EDT
Nautical Twilight 6:14 AM EDT 7:11 PM EDT
Astronomical Twilight 5:43 AM EDT 7:42 PM EDT
Moon 6:39 PM EDT 7:47 AM EDT
Length of Visible Light 11h 55m
Length of Day
11h 00m
Waxing Gibbous, 99% of the Moon is Illuminated
Oct 19
Waxing Gibbous
Oct 26
Last Quarter
Nov 3
New
Nov 10
First Quarter
Nov 17
Full

Hourly Weather History & Observations

Time (EDT) Temp. Windchill Dew Point Humidity Pressure Visibility Wind Dir Wind Speed Gust Speed Precip Events Conditions
12:54 AM 44.1 °F - 39.9 °F 85% 30.02 in 10.0 mi Calm Calm - N/A   Clear
1:54 AM 45.0 °F - 42.1 °F 90% 30.02 in 10.0 mi Calm Calm - N/A   Clear
2:54 AM 42.1 °F 40.2 °F 39.9 °F 92% 30.02 in 10.0 mi NNW 3.5 mph - N/A   Clear
3:54 AM 41.0 °F - 39.0 °F 93% 30.01 in 10.0 mi Calm Calm - N/A   Clear
4:54 AM 42.1 °F - 39.9 °F 92% 30.01 in 10.0 mi Calm Calm - N/A   Clear
5:54 AM 43.0 °F - 39.9 °F 89% 29.99 in 10.0 mi Calm Calm - N/A   Clear
6:54 AM 42.1 °F - 39.9 °F 92% 29.99 in 10.0 mi Calm Calm - N/A   Clear
7:54 AM 45.0 °F - 42.1 °F 90% 29.99 in 10.0 mi Calm Calm - N/A   Clear
8:54 AM 52.0 °F - 50.0 °F 93% 30.00 in 8.0 mi Calm Calm - N/A   Clear
9:54 AM 59.0 °F - 53.1 °F 81% 29.99 in 10.0 mi Calm Calm - N/A   Clear
10:54 AM 62.1 °F - 48.9 °F 62% 29.99 in 10.0 mi Variable 3.5 mph - N/A   Clear
11:54 AM 62.1 °F - 45.0 °F 53% 29.95 in 10.0 mi SE 9.2 mph - N/A   Clear
12:54 PM 63.0 °F - 45.0 °F 52% 29.94 in 10.0 mi SSE 8.1 mph - N/A   Clear
1:54 PM 62.1 °F - 46.0 °F 56% 29.91 in 10.0 mi South 5.8 mph - N/A   Scattered Clouds
2:54 PM 62.1 °F - 48.0 °F 60% 29.88 in 10.0 mi SSE 6.9 mph - N/A   Overcast
3:33 PM 61.0 °F - 48.9 °F 64% 29.87 in 10.0 mi SSE 8.1 mph - N/A   Mostly Cloudy
3:54 PM 61.0 °F - 50.0 °F 67% 29.86 in 10.0 mi Variable 3.5 mph - N/A   Scattered Clouds
4:14 PM 61.0 °F - 50.0 °F 67% 29.84 in 10.0 mi SSE 6.9 mph - N/A   Mostly Cloudy
4:54 PM 60.1 °F - 51.1 °F 72% 29.85 in 10.0 mi South 4.6 mph - N/A   Mostly Cloudy
5:16 PM 60.1 °F - 52.0 °F 75% 29.85 in 10.0 mi South 4.6 mph - 0.00 in Rain Light Rain
5:54 PM 57.9 °F - 53.1 °F 84% 29.85 in 10.0 mi Calm Calm - 0.00 in   Overcast
6:54 PM 57.9 °F - 54.0 °F 87% 29.83 in 10.0 mi Calm Calm - 0.00 in Rain Light Rain
7:54 PM 57.9 °F - 57.0 °F 97% 29.83 in 10.0 mi South 3.5 mph - 0.02 in Rain Light Rain
8:54 PM 59.0 °F - 57.9 °F 96% 29.80 in 10.0 mi South 6.9 mph - 0.01 in   Overcast
9:54 PM 59.0 °F - 57.9 °F 96% 29.81 in 10.0 mi SSW 6.9 mph - N/A   Partly Cloudy
10:54 PM 60.1 °F - 59.0 °F 96% 29.81 in 10.0 mi SW 8.1 mph - N/A   Scattered Clouds
11:54 PM 60.1 °F - 59.0 °F 96% 29.81 in 10.0 mi WSW 11.5 mph - N/A   Mostly Cloudy